Flag for Morocco Weather past 2 weeks in Casablanca, Morocco

Now
70 °F

Clear.


Feels Like: 70 °F
Forecast: 67 / 77 °F
Wind: 3 mph from Northeast

Location: Casablanca Airport

Current Time: Jul 30, 2014 at 10:52:46 PM

Latest Report: Jul 30, 2014 at 10:00 PM


Visibility: 10 mi

Pressure: 29.98 "Hg

Humidity: 78%

Dew point: 63 °F

Location of CasablancaLocation

Historic Weather in Casablanca — Graph

°F

Casablanca temperature yesterday

Maximum temperature yesterday: 77 °F (at 11:00 AM)
Minimum temperature yesterday: 70 °F (at 9:00 PM)
Average temperature yesterday: 74 °F

Past Weeks' High & Low Weather Summary

 TemperatureHumidityPressure
High81 °F (Jul 16, 11:00 AM)100% (Jul 22, 3:00 AM)30.09 "Hg (Jul 22, 3:00 AM)
Low68 °F (Jul 21, 6:00 AM)61% (Jul 18, 3:00 PM)29.86 "Hg (Jul 25, 3:00 PM)
Average74 °F78%29.97 "Hg
* Reported Jul 15 9:00 PM — Jul 30 9:00 PM, Casablanca, Weather by CustomWeather, © 2014

Note: Actual official high and low records may vary slightly from our data, if they occured in-between our weather recording intervals... More about our weather records

Advertising

Casablanca weather history for previous 24 hours

 ConditionsComfort  
Time TempWeatherWind HumidityBarometerVisibility
9:00 PM
Jul 30
70 °FClear.3 mph78%29.95 "Hg10 mi
8:00 PM72 °FClear.5 mph69%29.95 "Hg10 mi
7:00 PM73 °FSunny.7 mph65%29.92 "Hg10 mi
6:00 PM75 °FSunny.6 mph65%29.92 "Hg10 mi
5:00 PM75 °FSunny.6 mph65%29.92 "Hg10 mi
4:00 PM75 °FSunny.8 mph65%29.92 "Hg10 mi
3:00 PM75 °FPassing clouds.10 mph65%29.92 "HgN/A
2:00 PM77 °FPassing clouds.10 mph74%29.92 "HgN/A
1:00 PM77 °FSunny.8 mph74%29.92 "Hg10 mi
12:00 PM77 °FSunny.7 mph74%29.92 "Hg10 mi
11:00 AM75 °FPassing clouds.8 mph78%29.92 "HgN/A
10:00 AM73 °FPassing clouds.7 mph83%29.92 "HgN/A
9:00 AM72 °FPartly sunny.3 mph83%29.92 "HgN/A
8:00 AM70 °FPartly sunny.3 mph94%29.92 "HgN/A
7:00 AM70 °FPartly sunny.3 mph94%29.89 "HgN/A
2:00 AM68 °FPassing clouds.2 mph94%29.89 "HgN/A
1:00 AM70 °FClear.3 mph88%29.92 "Hg10 mi
12:00 AM70 °FClear.3 mph88%29.92 "Hg10 mi
11:00 PM
Jul 29
70 °FClear.3 mph83%29.92 "Hg10 mi
10:00 PM70 °FClear.5 mph83%29.92 "Hg10 mi
Weather by CustomWeather, © 2014

See weather overviewHow to use our weather pages